Tiempo cada hora Abikanda

Hoy, 22 Octubre, Jueves

Tiempo Temperatura Precipitaciones Viento Presión Humedad
00:00 +11°C° 0 mm 1 mps 668 mmHg 32%
01:00 +11°C° 0 mm 1 mps 668 mmHg 32%
02:00 +10°C° 0 mm 1 mps 668 mmHg 32%
03:00 +10°C° 0 mm 1 mps 668 mmHg 33%
04:00 +10°C° 0 mm 1 mps 668 mmHg 34%
05:00 +11°C° 0 mm 1 mps 669 mmHg 32%
06:00 +12°C° 0 mm 1 mps 670 mmHg 31%
07:00 +13°C° 0 mm 1 mps 670 mmHg 29%
08:00 +14°C° 0 mm 1 mps 670 mmHg 26%
09:00 +15°C° 0 mm 2 mps 670 mmHg 23%
10:00 +16°C° 0 mm 3 mps 670 mmHg 20%
11:00 +17°C° 0 mm 3 mps 670 mmHg 20%
12:00 +17°C° 0 mm 3 mps 670 mmHg 20%
13:00 +18°C° 0 mm 3 mps 670 mmHg 21%
14:00 +17°C° 0 mm 3 mps 669 mmHg 26%
15:00 +16°C° 0 mm 3 mps 669 mmHg 31%
16:00 +14°C° 0 mm 3 mps 668 mmHg 36%
17:00 +14°C° 0 mm 2 mps 668 mmHg 41%
18:00 +12°C° 0 mm 2 mps 668 mmHg 47%
19:00 +11°C° 0 mm 1 mps 668 mmHg 53%
20:00 +10°C° 0 mm 1 mps 668 mmHg 54%
21:00 +10°C° 0 mm 1 mps 668 mmHg 56%
22:00 +9°C° 0 mm 1 mps 668 mmHg 58%
23:00 +9°C° 0 mm 1 mps 668 mmHg 58%

Mañana, 23 Octubre, Viernes

Tiempo Temperatura Precipitaciones Viento Presión Humedad
00:00 +9°C° 0 mm 1 mps 668 mmHg 57%
01:00 +8°C° 0 mm 1 mps 668 mmHg 57%
02:00 +8°C° 0.2 mm 1 mps 668 mmHg 63%
03:00 +7°C° 0.2 mm 1 mps 668 mmHg 68%
04:00 +7°C° 0.2 mm 1 mps 668 mmHg 74%
05:00 +7°C° 0.4 mm 1 mps 668 mmHg 75%
06:00 +7°C° 0.4 mm 1 mps 669 mmHg 76%
07:00 +8°C° 0.4 mm 1 mps 669 mmHg 78%
08:00 +9°C° 0 mm 1 mps 670 mmHg 71%
09:00 +9°C° 0 mm 2 mps 670 mmHg 64%
10:00 +10°C° 0 mm 2 mps 670 mmHg 58%
11:00 +10°C° 0 mm 2 mps 670 mmHg 52%
12:00 +12°C° 0 mm 2 mps 670 mmHg 46%
13:00 +11°C° 0 mm 3 mps 670 mmHg 40%
14:00 +12°C° 0 mm 2 mps 670 mmHg 39%
15:00 +12°C° 0 mm 2 mps 670 mmHg 39%
16:00 +11°C° 0 mm 1 mps 670 mmHg 39%
17:00 +10°C° 0 mm 1 mps 670 mmHg 43%
18:00 +9°C° 0 mm 1 mps 670 mmHg 47%
19:00 +7°C° 0 mm 1 mps 670 mmHg 51%
20:00 +7°C° 0 mm 1 mps 670 mmHg 53%
21:00 +7°C° 0 mm 1 mps 670 mmHg 55%
22:00 +6°C° 0 mm 1 mps 669 mmHg 57%
23:00 +6°C° 0 mm 1 mps 669 mmHg 57%

Pasado mañana, 24 Octubre, Sábado

Tiempo Temperatura Precipitaciones Viento Presión Humedad
00:00 +6°C° 0 mm 1 mps 669 mmHg 56%
01:00 +5°C° 0 mm 0 mps 669 mmHg 56%
02:00 +5°C° 0 mm 0 mps 669 mmHg 56%
03:00 +5°C° 0 mm 0 mps 669 mmHg 57%
04:00 +5°C° 0 mm 0 mps 669 mmHg 57%
05:00 +5°C° 0 mm 0 mps 669 mmHg 56%
06:00 +6°C° 0 mm 0 mps 669 mmHg 54%
07:00 +7°C° 0 mm 0 mps 670 mmHg 53%
08:00 +9°C° 0 mm 1 mps 670 mmHg 49%
09:00 +9°C° 0 mm 2 mps 670 mmHg 45%
10:00 +12°C° 0 mm 2 mps 670 mmHg 41%
11:00 +12°C° 0 mm 2 mps 670 mmHg 40%
12:00 +11°C° 0 mm 3 mps 670 mmHg 39%
13:00 +12°C° 0 mm 3 mps 670 mmHg 38%
14:00 +12°C° 0 mm 2 mps 669 mmHg 38%
15:00 +12°C° 0 mm 2 mps 669 mmHg 38%
16:00 +12°C° 0 mm 2 mps 669 mmHg 39%
17:00 +10°C° 0 mm 1 mps 669 mmHg 42%
18:00 +9°C° 0 mm 1 mps 669 mmHg 45%
19:00 +7°C° 0 mm 0 mps 669 mmHg 49%
20:00 +7°C° 0 mm 0 mps 670 mmHg 50%
21:00 +6°C° 0 mm 0 mps 670 mmHg 51%
22:00 +6°C° 0 mm 0 mps 670 mmHg 52%
23:00 +6°C° 0 mm 1 mps 670 mmHg 53%

, 25 Octubre, Domingo

Tiempo Temperatura Precipitaciones Viento Presión Humedad
00:00 +6°C° 0 mm 1 mps 670 mmHg 53%
01:00 +6°C° 0 mm 1 mps 670 mmHg 53%
02:00 +6°C° 0 mm 1 mps 670 mmHg 54%
03:00 +6°C° 0 mm 1 mps 670 mmHg 54%
04:00 +6°C° 0 mm 1 mps 670 mmHg 54%
05:00 +7°C° 0 mm 1 mps 670 mmHg 52%
06:00 +8°C° 0 mm 1 mps 671 mmHg 50%
07:00 +7°C° 0 mm 0 mps 671 mmHg 48%
08:00 +10°C° 0 mm 1 mps 671 mmHg 42%
09:00 +12°C° 0 mm 1 mps 672 mmHg 37%
10:00 +14°C° 0 mm 1 mps 672 mmHg 32%
11:00 +15°C° 0 mm 1 mps 672 mmHg 30%
12:00 +15°C° 0 mm 2 mps 672 mmHg 29%
13:00 +16°C° 0 mm 2 mps 671 mmHg 27%
14:00 +16°C° 0 mm 2 mps 671 mmHg 28%
15:00 +15°C° 0 mm 1 mps 671 mmHg 30%
16:00 +15°C° 0 mm 1 mps 670 mmHg 31%
17:00 +13°C° 0 mm 1 mps 670 mmHg 35%
18:00 +12°C° 0 mm 1 mps 669 mmHg 38%
19:00 +10°C° 0 mm 1 mps 669 mmHg 42%
20:00 +10°C° 0 mm 1 mps 669 mmHg 41%
21:00 +10°C° 0 mm 1 mps 669 mmHg 41%
22:00 +9°C° 0 mm 2 mps 669 mmHg 40%
23:00 +10°C° 0 mm 1 mps 668 mmHg 39%

25 Octubre, Domingo

Tiempo Temperatura Precipitaciones Viento Presión Humedad
00:00 +6°C° 0 mm 1 mps 670 mmHg 53%
01:00 +6°C° 0 mm 1 mps 670 mmHg 53%
02:00 +6°C° 0 mm 1 mps 670 mmHg 54%
03:00 +6°C° 0 mm 1 mps 670 mmHg 54%
04:00 +6°C° 0 mm 1 mps 670 mmHg 54%
05:00 +7°C° 0 mm 1 mps 670 mmHg 52%
06:00 +8°C° 0 mm 1 mps 671 mmHg 50%
07:00 +7°C° 0 mm 0 mps 671 mmHg 48%
08:00 +10°C° 0 mm 1 mps 671 mmHg 42%
09:00 +12°C° 0 mm 1 mps 672 mmHg 37%
10:00 +14°C° 0 mm 1 mps 672 mmHg 32%
11:00 +15°C° 0 mm 1 mps 672 mmHg 30%
12:00 +15°C° 0 mm 2 mps 672 mmHg 29%
13:00 +16°C° 0 mm 2 mps 671 mmHg 27%
14:00 +16°C° 0 mm 2 mps 671 mmHg 28%
15:00 +15°C° 0 mm 1 mps 671 mmHg 30%
16:00 +15°C° 0 mm 1 mps 670 mmHg 31%
17:00 +13°C° 0 mm 1 mps 670 mmHg 35%
18:00 +12°C° 0 mm 1 mps 669 mmHg 38%
19:00 +10°C° 0 mm 1 mps 669 mmHg 42%
20:00 +10°C° 0 mm 1 mps 669 mmHg 41%
21:00 +10°C° 0 mm 1 mps 669 mmHg 41%
22:00 +9°C° 0 mm 2 mps 669 mmHg 40%
23:00 +10°C° 0 mm 1 mps 668 mmHg 39%

26 Octubre, Lunes

Tiempo Temperatura Precipitaciones Viento Presión Humedad
00:00 +9°C° 0 mm 1 mps 668 mmHg 38%
01:00 +9°C° 0 mm 1 mps 668 mmHg 37%
02:00 +9°C° 0 mm 1 mps 668 mmHg 37%
03:00 +9°C° 0 mm 1 mps 667 mmHg 37%
04:00 +9°C° 0 mm 1 mps 667 mmHg 38%
05:00 +10°C° 0 mm 1 mps 667 mmHg 35%
06:00 +11°C° 0 mm 1 mps 668 mmHg 32%
07:00 +11°C° 0 mm 1 mps 668 mmHg 30%
08:00 +14°C° 0 mm 1 mps 668 mmHg 25%
09:00 +16°C° 0 mm 1 mps 669 mmHg 21%
10:00 +20°C° 0 mm 1 mps 669 mmHg 16%
11:00 +20°C° 0 mm 1 mps 669 mmHg 16%
12:00 +20°C° 0 mm 2 mps 668 mmHg 15%
13:00 +21°C° 0 mm 2 mps 668 mmHg 14%
14:00 +20°C° 0 mm 2 mps 668 mmHg 16%
15:00 +20°C° 0 mm 1 mps 667 mmHg 18%
16:00 +19°C° 0 mm 1 mps 667 mmHg 20%
17:00 +16°C° 0 mm 1 mps 666 mmHg 22%
18:00 +15°C° 0 mm 1 mps 666 mmHg 23%
19:00 +13°C° 0 mm 1 mps 665 mmHg 24%
20:00 +13°C° 0 mm 1 mps 665 mmHg 24%
21:00 +13°C° 0 mm 1 mps 665 mmHg 23%
22:00 +13°C° 0 mm 1 mps 665 mmHg 22%
23:00 +12°C° 0 mm 1 mps 665 mmHg 22%

27 Octubre, Martes

Tiempo Temperatura Precipitaciones Viento Presión Humedad
00:00 +12°C° 0 mm 1 mps 664 mmHg 21%
01:00 +12°C° 0 mm 1 mps 664 mmHg 21%
02:00 +11°C° 0 mm 1 mps 664 mmHg 22%
03:00 +11°C° 0 mm 1 mps 664 mmHg 22%
04:00 +10°C° 0 mm 1 mps 664 mmHg 23%
05:00 +11°C° 0 mm 1 mps 664 mmHg 22%
06:00 +12°C° 0 mm 1 mps 664 mmHg 22%
07:00 +13°C° 0 mm 1 mps 665 mmHg 22%
08:00 +15°C° 0 mm 1 mps 665 mmHg 19%
09:00 +17°C° 0 mm 2 mps 666 mmHg 16%
10:00 +19°C° 0 mm 2 mps 667 mmHg 14%
11:00 +19°C° 0 mm 3 mps 666 mmHg 14%
12:00 +20°C° 0 mm 3 mps 666 mmHg 14%
13:00 +20°C° 0 mm 4 mps 666 mmHg 14%
14:00 +19°C° 0 mm 4 mps 666 mmHg 16%
15:00 +18°C° 0 mm 4 mps 666 mmHg 17%
16:00 +17°C° 0 mm 3 mps 666 mmHg 19%
17:00 +16°C° 0 mm 3 mps 666 mmHg 21%
18:00 +14°C° 0 mm 3 mps 666 mmHg 23%
19:00 +12°C° 0 mm 3 mps 666 mmHg 24%
20:00 +13°C° 0 mm 2 mps 666 mmHg 26%
21:00 +12°C° 0 mm 2 mps 667 mmHg 27%
22:00 +12°C° 0 mm 2 mps 667 mmHg 28%
23:00 +10°C° 0 mm 2 mps 667 mmHg 32%
Mostrar más

Necesitamos Su Consentimiento

Meteoprog y nuestros Proveedores de Servicios pueden almacenar y acceder a sus datos personales como cookies, identificadores de dispositivo u otras tecnologías similares de su dispositivo y procesar dichos datos para personalizar contenido y anuncios, además de ofrecer funciones de redes sociales y analizar el tráfico.

  • Almacenar y/o acceder a información en su dispositivo

    Se puede almacenar o acceder a cookies, identificadores de dispositivo u otra información de su dispositivo para los fines anteriormente indicados.

  • Anuncios y contenido personalizados, medición de anuncios y contenido, percepciones del público, y desarrollo de productos

    Los anuncios y el contenido pueden personalizarse en base a su perfil. Se pueden añadir más datos para personalizar mejor los anuncios y contenidos. Se puede medir el rendimiento de los anuncios y contenidos. Se puede obtener la percepción sobre el público que ha visto los anuncios y contenidos. Dichos datos pueden usarse para desarrollar o mejorar la experiencia del usuario, sistemas y software.

Al hacer clic en ‘Estoy De Acuerdo’ usted permitirá el uso de las cookies, identificadores de dispositivo, balizas web u otras tecnologías similares indicadas. Su configuración puede cambiarse desde el navegador de su dispositivo.

Para ciertos fines, los intereses legítimos pueden ser considerados por encima del consentimiento. Puede leer más sobre ello en nuestra Política de Privacidad y Cookies.